Location: Utrecht
(52.0917°N, 5.1178°E)
Time: 08:52:19
(UTC+02:00)

ISS - Visible Passes

Search period start: 25 May 2017 00:00
Search period end: 04 June 2017 00:00
Orbit: 402 x 409 km, 51.6° (Epoch: 25 May)

Date Brightness Start Highest point End Pass type
(mag) Time Alt. Az. Time Alt. Az. Time Alt. Az.
25 May -4.0 01:05:15 10° W 01:08:33 79° S 01:11:51 10° E visible
25 May -4.0 02:41:44 10° W 02:45:01 69° SSW 02:48:17 10° ESE visible
25 May -2.7 04:18:26 10° W 04:21:11 24° SSW 04:23:55 10° SSE visible
25 May -2.7 22:37:41 10° SSW 22:40:23 23° SSE 22:43:06 10° E visible
26 May -3.9 00:13:15 10° WSW 00:16:32 68° SSE 00:19:50 10° E visible
26 May -4.0 01:49:42 10° W 01:53:00 81° S 01:56:17 10° E visible
26 May -3.3 03:26:15 10° W 03:29:18 35° SSW 03:32:20 10° SE visible
26 May -3.7 23:21:19 10° WSW 23:24:33 53° SSE 23:27:46 10° E visible
27 May -3.9 00:57:39 10° W 01:00:58 85° S 01:04:16 10° E visible
27 May -3.7 02:34:10 10° W 02:37:22 49° SSW 02:40:33 10° SE visible
27 May -2.1 04:11:28 10° WSW 04:13:18 14° SW 04:15:07 10° S visible
27 May -3.3 22:29:28 10° SW 22:32:34 38° SSE 22:35:41 10° E visible
28 May -3.9 00:05:36 10° W 00:08:55 82° S 00:12:13 10° E visible
28 May -3.9 01:42:05 10° W 01:45:22 64° SSW 01:47:25 21° ESE visible
28 May -1.9 03:18:54 10° W 03:19:57 16° WSW 03:19:57 16° WSW visible
28 May -3.9 23:13:33 10° WSW 23:16:51 73° S 23:20:09 10° E visible
29 May -4.0 00:50:01 10° W 00:53:19 77° S 00:56:00 15° ESE visible
29 May -2.6 02:26:37 10° W 02:28:36 25° WSW 02:28:36 25° WSW visible
29 May -3.9 23:57:56 10° W 00:01:15 84° S 00:04:33 10° E visible
30 May -3.5 01:34:27 10° W 01:37:37 43° SSW 01:37:43 43° SSW visible
30 May -3.9 23:05:50 10° W 23:09:09 84° S 23:12:28 10° E visible
31 May -3.8 00:42:20 10° W 00:45:35 58° SSW 00:47:01 29° SE visible
31 May -1.4 02:19:16 10° W 02:19:38 12° WSW 02:19:38 12° WSW visible
31 May -3.9 23:50:13 10° W 23:53:31 73° S 23:56:23 13° ESE visible
01 Jun -2.5 01:26:52 10° W 01:29:01 25° SW 01:29:01 25° SW visible
01 Jun -3.9 22:58:06 10° W 23:01:25 82° S 23:04:43 10° E visible
02 Jun -3.3 00:34:38 10° W 00:37:44 38° SSW 00:38:28 33° S visible
02 Jun -3.6 23:42:28 10° W 23:45:42 53° SSW 23:47:57 18° SE visible
03 Jun -1.6 01:19:35 10° WSW 01:20:35 14° WSW 01:20:35 14° WSW visible
03 Jun -3.8 22:50:19 10° W 22:53:36 68° SSW 22:56:53 10° ESE visible
